sat.trackr.live / text

‹ back to catalog

T1DES 1 (DRAGOON 1)

NORAD 64542 · 2025-135Q

PAYLOAD ACTIVE UNKNOWN

§ Identity

Operator
Country
US
Launch date
2025-06-23
Launch site
AFWTR
Launch vehicle
Mass (kg)
RCS (m²)

External: N2YO · Heavens-Above · Gunter

§ Orbital elements

Epoch: 2026-09-21T20:34:30.566208Z

Period
94.28 min
Inclination
97.4780°
Eccentricity
0.0002887
Mean motion
15.27444554 rev/d
Perigee alt
481.5 km
Apogee alt
485.4 km
Semi-major
6,861.6 km
B*
2.5628e-4
RAAN
21.1010°
Arg perigee
166.9097°
Mean anomaly
193.2217°
Rev number
6,967

§ Raw data

T1DES 1 (DRAGOON 1)1 64542U 25135Q   26264.85729822  .00006809  00000+0  25628-3 0  99982 64542  97.4780  21.1010 0002887 166.9097 193.2217 15.27444554 69670

JSON: /api/v1/satellites/64542 · /tle

For live sub-satellite position, see the globe view (requires WebGL).

§ Visibility from observer

Set your observer location to see the next 7 days of passes ≥ 10°. The values pass through the URL so the page stays shareable.

No JS? Fill the form by hand. The geolocation button needs JavaScript.

§ Radio — SatNOGS DB

ModeDescriptionDownlinkUplink
FM Mode S - Transmitter 2.226 GHz
BPSK S-band telemetry 2.226 GHz

2 transmitters · refreshed weekly from db.satnogs.org